Powrót do katalogu

STARLINK-2581

AktywnyŁącznośćVLEO
NORAD 48412·PAYLOAD·🇺🇸 United States

Wystrzelony May 4, 2021 z Cape Canaveral Space Force Station

Loading…

Następne Przeloty (najbliższe 24 godziny)

TLE

ŚwieżeSource: CelesTrak SupGP

Epoka: Sep 15, 2026, 01:02 UTC

1 48412C 21038BM  26258.04354167  .00033687  00000+0  10835-2 0  2589
2 48412  53.1566 135.2537 0001251  87.2393  38.3532 15.31679834    16

Śledź STARLINK-2581 w czasie rzeczywistym z AllMySat

Download on the App Store